Theta_e
330 328 329 330 328 330 330 329 331 334 332 332 329 326 348 349 349 348 348 348 348 348 348 348 348 348 348 348 348 348 348 348 348 348 348 348 347 347 347 346 347 344 344 343
327 328 329 329 329 330 327 327 328 329 330 328 327 329 337 346 349 349 348 347 347 348 348 348 348 347 347 346 347 347 347 348 348 349 349 348 349 348 346 345 346 347 346 345
329 330 330 331 330 328 326 329 329 329 327 327 330 330 339 338 338 346 349 348 347 348 348 348 348 346 346 347 347 347 348 349 349 349 349 349 350 350 349 347 346 345 346 346
329 330 332 331 330 325 328 328 329 329 326 327 326 327 336 338 338 344 346 348 348 349 348 348 347 347 346 347 347 347 348 349 349 349 350 350 350 350 348 347 348 348 348 345
330 329 329 329 329 327 327 329 328 329 325 326 332 334 333 334 340 348 350 346 348 349 349 349 348 347 347 347 348 348 348 349 349 349 351 351 351 351 350 345 349 349 346 346
324 326 326 326 328 328 326 326 323 324 322 325 328 334 336 339 338 341 348 350 349 349 348 349 348 347 349 349 350 351 349 349 350 350 351 352 351 351 351 346 348 348 347 345
324 326 326 327 327 325 323 322 324 326 333 331 332 335 334 337 335 338 340 343 347 349 349 347 342 347 351 349 343 348 353 351 350 350 350 351 351 349 351 349 350 349 350 349
324 326 327 327 326 326 325 323 322 328 328 337 335 339 338 339 344 342 343 345 345 346 346 345 343 341 346 344 343 345 356 354 353 333 337 346 349 350 349 349 352 349 349 346
322 324 322 324 324 324 324 324 321 322 331 336 337 337 336 340 341 343 348 345 347 346 347 347 348 348 348 349 346 344 352 351 348 341 337 339 350 352 352 353 351 351 350 348
323 323 323 328 327 325 325 322 325 322 338 342 342 341 339 341 345 343 348 348 349 342 341 352 353 352 349 346 347 344 347 344 346 343 341 342 345 351 352 352 351 350 351 350
319 320 322 328 329 326 326 329 324 324 332 337 339 339 333 338 343 340 347 347 346 342 336 346 352 352 351 347 341 345 351 351 350 350 347 344 340 348 353 351 351 351 350 350
320 316 322 330 326 328 330 331 327 330 334 334 333 335 331 335 340 338 345 343 338 337 343 350 351 350 350 349 346 350 351 351 350 347 347 348 350 352 351 349 349 350 350 351
323 323 325 327 328 329 332 333 327 324 324 331 335 333 332 332 335 340 341 339 337 341 344 349 348 343 344 341 346 346 345 345 344 343 343 343 346 348 347 347 350 347 348 349
325 319 323 327 331 330 334 334 331 328 331 331 330 335 332 333 338 344 346 342 342 343 347 347 348 348 342 337 338 342 343 338 335 334 334 335 339 336 337 345 347 348 348 347
322 326 328 329 335 335 333 332 333 334 332 333 335 335 334 333 335 340 346 347 349 349 347 345 341 338 338 339 337 336 337 339 338 337 333 331 333 335 334 335 338 338 338 334
322 328 327 329 329 331 331 331 334 333 333 332 334 336 332 334 334 333 339 346 344 344 343 343 341 342 340 340 340 340 341 340 339 338 338 337 336 334 331 328 328 329 332 336
325 323 323 330 326 329 331 331 333 333 331 333 337 335 331 326 326 326 326 326 326 326 326 326 326 326 327 327 329 330 328 328 332 339 338 336 331 329 328 328 328 328 328 328
325 325 322 326 325 332 330 330 330 331 330 327 329 330 327 326 326 326 327 328 329 329 329 329 330 330 330 329 329 329 329 329 330 331 331 331 330 329 329 328 328 328 329 329
320 321 323 325 324 330 331 330 331 330 329 327 325 325 326 327 328 328 329 329 329 329 329 329 328 328 328 328 328 329 329 330 331 330 331 331 331 331 330 331 330 330 330 329
321 318 324 323 328 333 329 331 330 327 330 327 325 325 325 326 324 322 328 329 328 328 327 326 326 325 325 325 325 325 326 327 328 327 328 330 332 334 333 332 332 332 332 332
326 325 324 325 329 332 329 328 330 332 328 326 326 326 326 324 326 328 329 328 327 326 326 325 325 325 325 325 324 325 325 326 326 328 327 327 328 330 329 330 331 332 334 334
328 328 329 330 334 335 327 328 332 327 326 326 327 328 328 327 328 329 327 327 326 325 325 325 325 326 325 326 326 326 326 327 327 325 325 326 327 330 331 330 330 329 329 329
330 326 328 327 328 325 326 327 326 326 326 328 329 328 328 328 328 328 326 325 324 325 325 324 324 324 325 326 325 325 325 327 326 327 328 326 327 326 326 326 326 326 327 330
327 324 325 325 326 325 326 326 326 328 329 329 329 328 328 328 326 325 324 324 323 323 323 323 323 323 323 323 323 323 324 327 325 326 325 325 327 328 328 327 327 326 326 327
325 325 325 325 326 326 326 328 329 329 329 329 328 328 327 325 324 323 322 321 320 321 322 323 322 322 321 321 320 319 319 319 320 321 323 323 323 325 326 327 329 328 328 328
324 325 325 325 326 324 328 329 329 328 328 328 327 326 324 323 322 321 320 320 321 321 320 320 321 320 319 319 318 318 317 316 316 316 316 317 318 321 325 328 329 328 327 326
Wind_Speed
6 4 6 7 5 2 5 5 10 4 5 6 7 3 10 23 20 19 24 28 33 37 31 31 33 31 30 30 31 28 26 27 27 26 21 21 18 14 14 12 14 13 15 17
6 6 8 5 6 3 5 7 2 3 1 3 1 7 3 15 21 27 28 29 32 30 29 30 29 31 32 24 30 28 26 25 26 27 24 22 13 15 12 12 13 15 15 16
5 9 7 4 12 4 3 3 2 4 2 6 3 5 4 4 3 21 26 28 23 28 31 31 31 32 31 35 26 27 24 22 27 27 27 25 25 20 17 16 15 15 14 15
5 7 6 8 8 6 1 3 0 3 4 2 3 4 4 6 6 7 15 27 29 30 30 33 32 33 32 27 29 24 23 22 25 27 28 30 28 23 20 14 11 10 13 12
7 5 4 6 7 5 7 3 2 1 4 3 1 5 4 1 6 5 3 14 23 27 26 30 32 31 27 21 26 27 28 25 26 27 24 28 29 27 23 20 17 15 14 15
8 11 4 8 4 2 2 5 6 5 3 3 7 3 6 2 6 3 5 10 17 15 9 22 24 25 22 22 20 22 31 28 25 29 29 25 25 24 24 24 21 17 15 14
6 6 4 5 2 4 6 6 3 5 5 4 4 4 6 4 5 4 2 8 10 15 15 17 15 21 17 16 14 16 23 25 23 20 26 35 25 23 25 24 23 21 18 16
1 8 3 3 8 7 3 7 6 3 2 3 5 1 5 4 3 4 9 10 9 2 9 15 14 18 20 23 15 18 19 22 24 29 41 39 42 23 24 23 25 22 20 16
5 6 5 6 2 8 2 2 4 7 3 3 4 4 2 4 5 11 16 14 13 7 7 9 14 16 21 12 12 19 11 18 24 27 21 43 27 21 22 23 24 26 20 17
2 3 3 5 3 5 4 6 3 3 4 3 4 5 5 7 6 6 12 19 18 8 22 17 17 14 5 3 2 16 19 15 19 14 20 22 24 20 20 23 23 24 19 18
5 3 8 3 5 2 5 3 6 6 4 5 2 6 5 7 8 8 15 27 19 16 30 20 9 3 7 10 8 10 16 12 10 15 15 22 17 22 23 22 20 18 16 16
6 5 2 2 3 4 4 4 4 5 1 2 3 5 6 7 7 12 14 12 9 15 17 20 12 5 6 12 7 4 3 8 8 8 9 13 17 16 20 18 20 18 14 12
8 0 3 8 6 5 6 3 5 5 3 2 5 5 5 6 2 16 8 9 16 21 18 18 12 8 7 8 1 1 5 6 6 7 10 13 11 12 11 11 13 13 13 12
10 4 6 6 5 4 4 1 3 5 4 3 4 2 6 4 7 12 13 17 16 18 18 13 11 11 7 8 8 5 4 4 6 9 9 7 7 8 8 7 7 8 8 10
5 4 4 2 1 2 5 3 3 4 5 5 4 6 2 3 6 7 16 14 14 14 13 9 7 7 7 7 7 10 9 10 11 11 11 11 10 11 11 11 10 9 8 7
4 2 3 6 6 7 5 11 5 4 5 8 8 6 4 14 23 25 15 11 9 2 5 8 11 13 13 15 17 18 19 18 19 14 12 13 11 16 16 16 16 14 13 12
4 6 3 1 4 3 6 7 4 5 5 5 5 3 7 11 17 19 18 17 13 11 12 12 11 11 12 13 13 14 16 17 17 21 21 18 18 19 20 20 22 20 18 16
6 4 3 3 1 3 6 2 11 14 10 9 11 7 8 17 21 19 16 13 12 11 11 11 11 11 12 11 14 16 16 18 20 22 23 23 23 20 21 20 20 22 20 17
3 5 4 4 3 2 4 5 3 4 3 4 6 5 5 1 2 14 13 12 11 12 13 15 17 19 19 21 22 21 19 17 19 23 27 28 26 26 26 25 23 22 22 21
6 8 5 2 5 7 6 2 5 8 1 1 7 5 5 6 3 3 10 9 12 15 18 22 24 27 29 30 31 31 30 28 26 25 23 21 19 22 26 28 26 26 27 28
4 4 5 3 2 5 4 1 12 3 6 10 8 8 5 3 3 1 4 9 13 18 21 24 25 26 24 24 24 25 27 30 31 31 30 26 26 27 26 25 25 27 29 31
4 5 2 3 4 4 1 1 5 8 14 12 11 8 8 6 4 1 9 16 20 23 24 23 24 24 20 20 21 24 26 28 29 30 32 30 29 30 31 34 35 35 34 34
1 5 6 4 4 3 3 12 19 15 16 13 10 6 2 2 5 10 14 18 21 20 19 21 22 25 25 25 25 27 26 27 28 27 26 26 28 29 30 31 33 34 34 33
2 4 5 4 3 2 14 13 13 12 13 9 5 2 1 3 7 11 15 17 18 19 19 20 24 26 27 26 27 26 25 25 29 28 28 27 29 28 25 25 28 30 30 34
3 4 6 2 0 5 7 16 17 13 9 6 5 2 4 7 11 13 13 14 14 15 16 19 20 22 22 24 25 26 27 31 32 32 32 34 32 29 28 27 25 24 24 25
4 7 5 5 17 6 14 14 11 10 9 6 2 3 7 10 11 10 11 12 13 13 15 17 18 21 24 28 31 34 37 36 33 33 32 32 31 28 24 27 26 24 23 24
Wind_Direction
360 18 265 272 216 215 253 223 232 231 202 144 219 83 190 188 194 197 200 207 212 218 219 230 232 226 218 223 226 226 233 231 227 235 234 225 237 253 256 253 251 259 247 242
4 274 277 247 265 291 269 250 327 29 107 115 158 135 134 192 205 203 202 210 212 218 224 226 235 230 225 221 227 227 238 245 237 242 245 241 243 258 261 262 260 256 258 251
179 252 306 322 305 311 232 134 126 153 45 26 60 346 35 33 215 211 218 221 217 215 221 222 221 224 228 226 224 228 239 250 242 246 246 245 245 254 254 255 261 258 261 259
231 300 271 285 250 190 61 213 329 103 67 227 82 265 53 340 0 23 219 208 208 214 223 224 219 222 225 231 231 239 243 250 242 245 246 244 256 270 270 276 260 256 257 257
246 318 342 312 257 163 218 81 60 23 113 103 342 86 322 349 356 333 347 200 206 215 224 221 223 226 225 233 242 250 246 250 248 243 251 252 253 267 267 270 265 253 251 253
248 268 231 222 294 180 75 82 49 51 82 36 329 84 321 293 221 274 334 187 196 197 190 212 218 218 225 236 245 256 246 248 252 250 252 262 264 266 259 262 264 258 251 250
318 261 256 187 203 25 73 55 359 360 16 217 315 63 225 291 283 177 219 294 209 221 224 201 245 230 225 230 261 260 247 238 244 264 279 271 270 269 258 259 258 260 260 258
235 328 191 194 194 179 102 144 146 218 219 260 333 145 230 208 109 129 113 112 85 230 282 273 271 256 236 260 268 266 236 228 231 1 271 264 264 269 267 256 253 257 259 264
173 267 311 242 139 128 164 148 187 101 36 71 305 314 140 176 203 118 101 88 61 51 335 314 296 279 266 269 251 231 226 249 259 282 243 238 261 260 274 269 265 263 263 266
191 313 285 330 85 40 109 158 57 22 145 191 301 287 236 192 191 242 113 115 133 144 278 281 295 311 327 35 254 214 267 266 279 261 277 256 262 267 275 268 266 268 268 268
155 99 296 11 19 253 27 24 52 112 102 150 171 264 231 178 186 172 151 153 174 196 219 263 260 328 59 71 20 297 279 261 299 285 279 261 271 268 277 269 266 268 279 269
201 146 200 177 9 18 112 111 113 110 209 112 147 272 310 182 189 162 179 217 183 198 219 234 231 214 84 90 25 342 311 263 269 283 280 281 279 278 279 282 269 272 279 280
182 39 52 353 1 1 57 4 101 106 72 196 133 266 346 107 226 203 191 174 183 206 229 222 223 238 333 333 85 154 305 324 305 290 278 275 286 296 295 288 276 279 281 277
125 94 145 173 203 163 103 343 89 108 107 177 225 326 333 34 85 110 136 149 165 196 209 222 244 268 292 304 273 269 269 246 290 316 320 316 315 341 349 338 314 311 300 288
89 105 97 144 215 121 69 74 212 122 171 159 184 112 314 27 85 105 131 139 148 170 195 219 246 271 280 276 271 272 272 280 281 281 297 303 313 329 342 344 340 339 332 325
22 146 58 17 354 60 62 21 93 26 100 77 109 86 34 66 74 61 66 82 66 17 298 303 319 324 310 297 288 283 272 279 274 264 277 286 288 302 312 318 321 316 313 309
88 125 90 229 346 36 14 336 49 46 15 130 127 93 115 84 85 83 80 78 72 52 33 21 5 352 340 334 325 317 314 296 286 266 271 272 281 286 283 294 304 307 302 291
118 95 86 167 14 47 228 133 87 86 49 54 79 94 114 107 83 66 58 58 51 39 25 12 356 342 336 319 302 299 292 288 289 281 277 272 268 268 271 277 280 284 282 286
64 118 69 107 70 37 283 261 257 114 16 359 96 89 98 167 50 52 52 31 24 10 356 342 334 327 318 314 313 313 307 306 294 285 277 274 273 270 270 264 265 272 273 279
62 67 103 107 134 197 226 219 143 115 316 187 124 104 67 42 13 286 3 352 345 339 335 330 325 319 314 310 307 303 298 295 294 295 291 289 289 278 272 270 267 271 274 275
27 19 116 100 119 286 231 353 153 127 225 155 132 119 131 140 171 263 313 333 338 338 335 330 325 324 325 326 324 316 310 304 298 293 288 287 278 275 272 272 272 270 266 265
145 126 132 93 90 253 76 168 182 152 131 142 140 137 128 133 159 322 335 336 335 333 333 335 335 335 341 338 332 326 324 324 317 302 296 290 281 274 274 273 270 269 267 266
62 176 163 164 209 288 99 132 128 136 140 150 137 125 114 50 345 337 336 335 333 334 341 346 351 346 348 345 342 334 332 326 317 317 310 297 290 288 286 282 276 274 272 270
73 146 98 92 279 127 118 122 129 131 130 130 116 77 353 359 346 339 336 337 345 349 347 348 341 337 332 329 326 321 318 310 303 307 304 305 305 297 296 296 286 278 273 269
190 102 127 45 195 128 128 140 139 133 126 131 128 87 23 351 343 343 351 355 349 351 352 351 346 343 337 338 345 344 336 326 317 307 299 295 295 297 298 295 293 286 279 274
182 166 157 199 188 151 150 145 149 141 137 126 100 17 351 350 359 6 3 356 0 4 13 7 357 3 1 354 349 346 345 337 331 322 316 309 299 286 288 294 294 293 286 283